Overview Statistics Trail Chart Weather Telemetry Raw packets
 

This is the latest recevied weather packets stored in our database for station/object SV9TNF-52. If no packets are shown the sender has not sent any weather packets the latest 10 day(s).

<< 55 56 57 58 59 60 61 >>
Time Temp. Humidity Pressure Rain* Wind** Luminosity Snow
1788291205 23.89° C 71% 1020.3 hPa 0 mm 4.92 m/s, 190° - -
1788290905 23.89° C 70% 1020.3 hPa 0 mm 5.81 m/s, 176° - -
1788290605 23.89° C 70% 1020.3 hPa 0 mm 6.26 m/s, 175° - -
1788290305 23.89° C 70% 1020.3 hPa 0 mm 6.26 m/s, 226° - -
1788290004 23.89° C 70% 1020.3 hPa 0 mm 3.13 m/s, 251° - -
1788289704 23.89° C 70% 1020.3 hPa 0 mm 5.81 m/s, 229° - -
1788289404 23.89° C 70% 1020.3 hPa 0 mm 6.26 m/s, 180° - -
1788289105 23.89° C 70% 1020 hPa 0 mm 3.58 m/s, 235° - -
1788288804 23.89° C 69% 1020 hPa 0 mm 4.92 m/s, 220° - -
1788288504 24.44° C 69% 1020 hPa 0 mm 4.47 m/s, 344° - -
1788288204 24.44° C 69% 1020 hPa 0 mm 4.02 m/s, 205° - -
1788287904 24.44° C 69% 1020 hPa 0 mm 4.02 m/s, 247° - -
1788287604 24.44° C 69% 1020 hPa 0 mm 2.68 m/s, 242° - -
1788287303 24.44° C 68% 1020 hPa 0 mm 3.13 m/s, 181° - -
1788287004 24.44° C 68% 1020 hPa 0 mm 2.68 m/s, 196° - -
1788286703 24.44° C 68% 1020 hPa 0 mm 1.34 m/s, 224° - -
1788286403 24.44° C 68% 1019.6 hPa 0 mm 4.47 m/s, 208° - -
1788286103 25° C 67% 1019.6 hPa 0 mm 1.34 m/s, 234° - -
1788285803 25° C 67% 1019.6 hPa 0 mm 3.58 m/s, 223° - -
1788285503 25° C 66% 1019.6 hPa 0 mm 2.68 m/s, 220° - -
1788285203 25.56° C 66% 1019.6 hPa 0 mm 1.34 m/s, 249° - -
1788284903 25.56° C 66% 1019.6 hPa 0 mm 1.79 m/s, 230° - -
1788284603 25.56° C 65% 1019.6 hPa 0 mm 2.24 m/s, 250° - -
1788284303 26.11° C 65% 1019.6 hPa 0 mm 2.68 m/s, 251° - -
1788284002 26.11° C 65% 1019.6 hPa 0 mm 2.68 m/s, 245° - -

* Rain latest hour (hover to see other rain measurements)
** Current wind speed in m/s (hover to see current wind gust speed)